Weather in Ostend

Belgium     51°13′40″N   2°55′00″E
temp.,
°C
wind,
m/s
gust,
m/s
humid.,
%
clouds,
%
prec.,
mm/h
press.,
hPa
HPBL,
m
14 may, fri
fri1423:00+9nnw00915 0.0 100770
02:00+9s11885 0.0 100746
05:00+8e23855 0.0 100766
08:00+9se228010 0.0 1007111
11:00+11nne22735 0.1 1008408
14:00+12nne547934 0.8 1008485
17:00+11nne65815 0.2 1008424
20:00+10nne55835 0.2 1008340
15 may, sat
sat1523:00+9nne45886 0.0 1008235
02:00+8ene2289100 0.0 1007164
05:00+8ssw2391100 0.0 1005110
08:00+8s4690100 0.0 1005257
11:00+10s4685100 0.1 1003343
14:00+9s6884100 0.8 1002962
17:00+9sse5691100 0.3 1001568
20:00+11wsw478188 0.6 1001743
16 may, sun
sun1623:00+10sw7128943 0.4 1002521
02:00+8sw7139425 0.9 1002499
05:00+8ssw71294100 0.1 1001433
08:00+9ssw7119144 0.1 1001459
11:00+12sw8107899 0.5 10011044
14:00+12wsw697899 1.8 1001939
17:00+12wsw71082100 0.8 1001871
20:00+12sw710835 1.8 1000557
17 may, mon
mon1723:00+10ssw7139229 0.3 1000669
02:00+11sw101589100 0.6 9991039
05:00+11wsw121592100 1.2 9981036
08:00+10w101288100 1.9 1000748
11:00+11w9108689 0.1 1002727
14:00+11w79845 0.2 1004513
17:00+12w578185 0.1 1005449
20:00+12wsw71182100 0.5 1005388
18 may, tue
tue1823:00+11wsw699091 0.5 1007231
02:00+11wnw913885 0.9 1009581
05:00+10wnw9128625 0.0 1011690
08:00+10wsw810855 0.3 1013606
11:00+11w911775 0.1 1015709
14:00+12wsw9117417 0.1 1016940
17:00+13wsw11136989 0.1 10161003
20:00+11sw91579100 0.4 1015823